This is the latest recevied weather packets stored in our database for station/object KE0LFX. If no packets are shown the sender has not sent any weather packets the latest 10 day(s).
| Time | Temp. | Humidity | Pressure | Rain* | Wind** | Luminosity | Snow |
|---|---|---|---|---|---|---|---|
| 1777903611 | 17.78° C | 54% | 1006.2 hPa | 0 mm | - | 78 W/m² | - |
| 1777903307 | 17.78° C | 53% | 1006 hPa | 0 mm | - | 48 W/m² | - |
| 1777903004 | 17.78° C | 53% | 1006.1 hPa | 0 mm | - | 45 W/m² | - |
| 1777902700 | 17.22° C | 55% | 1006.3 hPa | 0 mm | - | 45 W/m² | - |
| 1777902398 | 17.22° C | 55% | 1006.1 hPa | 0 mm | - | 44 W/m² | - |
| 1777902094 | 16.67° C | 54% | 1006.4 hPa | 0 mm | - | 47 W/m² | - |
| 1777901793 | 16.67° C | 54% | 1006.4 hPa | 0 mm | - | 42 W/m² | - |
| 1777901490 | 16.67° C | 55% | 1006.4 hPa | 0 mm | - | 41 W/m² | - |
| 1777901187 | 16.67° C | 54% | 1006.2 hPa | 0 mm | - | 39 W/m² | - |
| 1777900885 | 16.11° C | 55% | 1006 hPa | 0 mm | - | 39 W/m² | - |
| 1777900582 | 16.11° C | 56% | 1006.1 hPa | 0 mm | - | 37 W/m² | - |
| 1777900279 | 15.56° C | 57% | 1006.3 hPa | 0 mm | - | 37 W/m² | - |
| 1777899975 | 15° C | 58% | 1006.3 hPa | 0 mm | - | 37 W/m² | - |
| 1777899672 | 15° C | 58% | 1006.6 hPa | 0 mm | - | 37 W/m² | - |
| 1777899370 | 14.44° C | 59% | 1006.6 hPa | 0 mm | - | 35 W/m² | - |
| 1777899067 | 14.44° C | 59% | 1006.7 hPa | 0 mm | - | 35 W/m² | - |
| 1777898763 | 13.89° C | 60% | 1006.5 hPa | 0 mm | - | 41 W/m² | - |
| 1777898461 | 13.89° C | 60% | 1006.8 hPa | 0 mm | - | 33 W/m² | - |
| 1777898159 | 13.33° C | 60% | 1006.7 hPa | 0 mm | - | 37 W/m² | - |
| 1777897855 | 13.33° C | 61% | 1006.6 hPa | 0 mm | - | 32 W/m² | - |
| 1777897551 | 12.78° C | 61% | 1006.8 hPa | 0 mm | - | 31 W/m² | - |
| 1777897248 | 12.78° C | 61% | 1006.7 hPa | 0 mm | - | 30 W/m² | - |
| 1777896943 | 12.78° C | 61% | 1006.9 hPa | 0 mm | - | 29 W/m² | - |
| 1777896641 | 12.22° C | 62% | 1007 hPa | 0 mm | - | 27 W/m² | - |
| 1777896338 | 12.22° C | 62% | 1006.9 hPa | 0 mm | - | 26 W/m² | - |
* Rain latest hour (hover to see other rain measurements)
** Current wind speed in m/s (hover to see current wind gust speed)